04:53
Airports
History
Links
Donate
Help keep this website running!
PayPal
Bitcoin
This page is community maintained. The information is intended for PC simulator navigation or reference.
Always use approved charts for navigation.
DH1
Huntsville Deerhurst Resort
Huntsville Deerhurst Resort (DH1)
Huntsville, Ontario, Canada
(U)
Lat/Lng:45° 21' 15" N / 79° 9' 5" W
45.354167 / -79.151389
Elevation:1029'ft / 314mMSL
ID / ICAO:DH1
Runways:1
Longest:05-23
Asphalt 933m / 3,062ft
Nearby Weather04:00 GMT 2017-10-20
Nearby weather at CYQA, Muskoka located 27.2 nautical miles from DH1
Altimeter: 30.04
Visibility: 9.0 statute miles
Wind: 3 knots (from 220°)
Temp: 10°c / 50°f
Humidity: 71.0%

METAR: CYQA 200400Z AUTO 22003KT 9SM CLR 10/05 A3004 RMK SLP178

(Powered by phpweather)
Airport Radio Frequencies
CTAF/UNICOM: 123.35
Nearby VORs <50NM
Nearby NDBs
Runway 05 / 23
Dimensions:933.4 x 18.3m 3062' x 60'ft
Surface:Asphalt
Runway 05 [A]Runway 23 [B]
Heading:037°TH 217°TH
Lat:
Lng:
45° 21' 3"N
79° 9' 18"W
45° 21' 27"N
79° 8' 52"W
User Notes and Comments
45° 21' 15" N / 79° 9' 5" W
Distance To
Airport ID:
Nearby Airports
4 Emsdale 16.6 NM
CNA4 NW 324°
4 Windermere 22.8 NM
CNW2 SW 234°
(U) Muskoka 27.2 NM
CYQA ( WX ) SSW 195°
(U) PARRY SOUND AREA MUNI 33.6 NM
CNK4 WSW 258°
(C) South River-Sundridge 33.7 NM
CPE6 NNW 343°
4 Trout Creek Chalet 44.5 NM
CTC1 NNW 344°
(U) Orillia Mara 52.2 NM
NE2 S 189°
VFR Chart
Flight Planning at SkyVector.com